sat.trackr.live / text

‹ back to catalog

STARLINK-30208

NORAD 57415 · 2023-102M

PAYLOAD ACTIVE UNKNOWN

§ Identity

Operator
Country
US
Launch date
2023-07-20
Launch site
AFWTR
Launch vehicle
Mass (kg)
RCS (m²)

Purposes: comms

External: N2YO · Heavens-Above · Gunter

§ Orbital elements

Epoch: 2026-05-25T03:30:17.314272Z

Period
94.27 min
Inclination
43.0043°
Eccentricity
0.0001720
Mean motion
15.27580237 rev/d
Perigee alt
481.9 km
Apogee alt
484.2 km
Semi-major
6,861.2 km
B*
3.1554e-5
RAAN
176.7338°
Arg perigee
284.2295°
Mean anomaly
75.8366°
Rev number
15,788

§ Raw data

STARLINK-302081 57415U 23102M   26145.14603373  .00000606  00000+0  31554-4 0  99982 57415  43.0043 176.7338 0001720 284.2295  75.8366 15.27580237157889

JSON: /api/v1/satellites/57415 · /tle

For live sub-satellite position, see the globe view (requires WebGL).

§ Visibility from observer

Set your observer location to see the next 7 days of passes ≥ 10°. The values pass through the URL so the page stays shareable.

No JS? Fill the form by hand. The geolocation button needs JavaScript.